Skip Page Navigation
NASA JPL Caltech
NASA Logo - Jet Propulsion Laboratory + View the NASA Portal
+ Center for Near-Earth Object Studies
JPL Home Earth Solar System Stars & Galaxies Technology
JPL Solar System Dynamics
BODIES ORBITS EPHEMERIDES TOOLS PHYSICAL DATA DISCOVERY FAQ SITE MAP
IMPORTANT: The SSD Announcement email list is now available. Major changes are coming in the near future, including possible hostname and/or URL changes. To be notified of such changes, subscribe to this email list.

Please visit this page for more details.


JPL Small-Body Database Browser
Search: [ help ]  
266114 (2006 SB286)
Classification: Main-belt Asteroid          SPK-ID: 2266114
Ephemeris | Orbit Diagram | Orbital Elements | Mission Design | Physical Parameters | Discovery Circumstances | Close-Approach Data ]

[ show orbit diagram ]
Orbital Elements at Epoch 2458600.5 (2019-Apr-27.0) TDB
Reference: JPL 9 (heliocentric ecliptic J2000)
 Element Value Uncertainty (1-sigma)   Units 
e .1216006075026261 6.6008e-08  
a 2.23345907552903 1.851e-08 au
q 1.961869095112447 1.5734e-07 au
i 5.65260416512489 7.2152e-06 deg
node 127.1674909770665 5.8846e-05 deg
peri 275.3806656172811 6.8176e-05 deg
M 248.8053182372987 3.7235e-05 deg
tp 2458977.071060190813
(2020-May-07.57106019)
0.00012842 TDB
period 1219.17325109128
3.34
1.5156e-05
4.149e-08
d
yr
n .2952820689576027 3.6708e-09 deg/d
Q 2.505049055945614 2.0761e-08 au
  Orbit Determination Parameters
   # obs. used (total)      189  
   data-arc span      6839 days (18.72 yr)  
   first obs. used      2001-02-02  
   last obs. used      2019-10-25  
   planetary ephem.      DE431  
   SB-pert. ephem.      SB431-N16  
   condition code      0  
   norm. resid. RMS      .66471  
   source      ORB  
   producer      Otto Matic  
   solution date      2019-Nov-08 04:03:18  

Additional Information
 Earth MOID = .979495 au 
 Jupiter MOID = 2.85129 au 
 T_jup = 3.624 
[ show covariance matrix ]

Ephemeris | Orbit Diagram | Orbital Elements | Mission Design | Physical Parameters | Discovery Circumstances | Close-Approach Data ]

Physical Parameter Table
Parameter Symbol Value Units Sigma Reference Notes
absolute magnitude H 17.4   n/a MPO437226  

266114 (2006 SB286)          Discovered 2006-Sep-18 by CSS at Catalina
Reference: 20110218/Numbers.arcLast Updated: 2011-02-22

[ show close-approach data ]
Alternate Designations
 2006 SB286 = 2003 YW105 
Ephemeris | Orbit Diagram | Orbital Elements | Mission Design | Physical Parameters | Discovery Circumstances | Close-Approach Data ]
ABOUT SSD CREDITS/AWARDS PRIVACY/COPYRIGHT GLOSSARY LINKS
FirstGov 2019-Dec-10 00:12 UT
(server date/time)  
NASA Home Page
Site Manager:   Ryan S. Park
Webmaster  Alan B. Chamberlin